GFSCGP_2pvu_pres_096.txt.gz
Presure
173 210 165 158 194 199 165 217 215 219 223 228 238 232 225 253 253 263 268 256 241 286 312 269 260 251 268 264 229 231 194 196 205 198 204 136 78 74 120 212 206 191 213 231
198 176 211 207 204 200 215 216 213 216 225 232 232 260 248 248 245 252 259 240 297 311 270 283 310 288 286 272 273 239 209 199 205 191 138 200 208 202 202 206 199 205 212 214
193 204 211 207 222 192 216 223 222 223 230 234 258 233 262 255 253 250 310 308 284 262 333 357 359 336 304 283 264 144 206 202 213 198 196 198 198 188 189 200 205 213 215 221
196 211 213 213 208 220 206 209 221 232 244 269 255 254 252 247 239 298 324 297 357 322 333 336 317 300 295 265 267 230 212 205 198 206 201 199 200 199 198 200 201 211 207 217
213 215 213 197 215 227 216 228 236 255 277 272 232 267 267 160 317 354 352 347 298 297 305 290 278 283 262 259 240 212 204 211 194 203 202 182 185 191 200 203 207 211 210 229
213 201 216 213 233 241 231 249 253 287 256 281 143 220 72 340 351 338 311 291 278 275 262 263 261 281 268 235 231 216 214 208 210 204 217 211 185 191 214 221 206 213 207 236
227 233 235 243 235 238 249 257 282 281 255 282 295 327 389 341 333 312 307 284 267 275 264 256 257 252 243 252 237 221 210 206 213 230 205 192 211 196 206 205 217 205 219 233
235 238 239 247 255 258 297 282 274 281 276 297 309 358 361 336 304 299 269 259 259 274 257 255 253 245 242 235 234 231 217 204 198 198 174 195 186 196 193 212 219 236 228 236
246 247 249 274 278 281 275 270 263 272 311 312 380 380 345 302 280 285 260 256 246 252 260 252 242 243 242 234 223 213 220 203 180 171 167 182 205 194 185 211 251 199 263 204
287 296 286 282 279 270 268 276 292 295 302 334 356 353 298 276 274 263 244 240 245 242 243 244 234 238 223 215 206 214 205 218 184 188 194 201 191 220 190 211 212 201 258 251
281 280 285 262 266 282 292 298 293 305 326 361 344 301 279 261 249 240 230 231 238 247 246 245 236 238 234 242 220 225 206 199 190 188 191 205 169 209 199 193 208 220 277 239
276 284 304 298 301 293 352 336 340 330 332 356 316 286 273 252 241 236 237 230 235 247 242 242 232 228 232 228 228 222 217 201 195 195 185 200 195 213 194 195 235 291 157 223
290 300 314 355 339 338 328 323 327 329 325 362 293 281 252 243 234 232 235 236 231 235 235 230 225 223 222 227 231 219 222 189 201 179 177 180 183 185 216 216 218 267 167 149
298 323 339 327 358 472 482 436 319 321 321 337 276 274 245 235 239 236 230 236 233 239 235 234 226 218 224 214 216 213 218 213 194 197 153 140 204 186 190 204 238 244 220 161
330 321 367 389 378 468 457 424 319 312 330 314 267 264 241 237 239 228 235 220 232 242 220 226 226 226 223 218 218 222 225 217 219 203 224 210 204 205 202 220 268 228 215 205
315 385 379 361 395 470 435 323 303 303 324 291 264 258 264 236 244 244 231 243 240 221 232 224 221 217 216 219 212 219 220 222 216 220 224 264 189 237 287 241 255 223 211 204
392 368 359 375 439 495 381 296 296 293 310 313 261 253 264 260 243 244 244 231 244 233 223 229 222 223 220 220 222 220 218 218 223 246 254 257 261 246 238 241 229 216 207 202
356 347 433 457 466 411 303 281 275 308 299 302 264 248 245 258 262 253 245 241 238 239 231 219 219 210 211 214 213 223 224 224 242 259 252 238 237 229 234 225 225 213 211 201
359 432 425 434 342 326 281 276 269 259 272 288 271 261 251 246 252 259 252 251 236 248 238 234 225 218 219 218 220 224 211 236 252 265 247 252 224 232 237 219 218 212 214 198
380 396 362 327 298 288 282 265 261 265 265 288 287 265 260 256 231 250 245 246 242 237 237 228 223 221 222 227 191 229 207 250 256 222 241 243 231 237 231 211 224 219 214 202
337 321 316 295 297 294 278 273 266 272 269 276 286 292 273 264 260 257 249 238 236 231 231 234 230 227 229 223 235 230 241 236 245 256 256 227 246 233 221 217 235 216 208 204
312 304 293 306 283 284 279 277 273 275 266 275 270 291 297 273 269 265 254 245 243 239 232 229 225 224 223 224 235 240 244 228 241 248 265 250 228 244 228 220 210 226 213 201
305 293 292 297 289 296 269 275 283 261 273 268 275 269 285 296 288 283 272 253 240 241 235 235 231 216 230 229 235 233 227 233 245 235 259 231 220 248 240 224 223 190 216 200
313 297 287 284 284 278 299 285 282 283 270 281 250 262 263 275 292 287 278 265 257 253 253 245 240 236 236 234 235 236 229 224 238 228 248 260 221 242 239 236 226 225 219 203
309 317 293 285 285 283 281 276 287 295 273 278 253 256 257 265 274 279 279 274 261 258 254 239 245 245 246 241 242 232 227 233 249 231 238 229 244 226 234 236 235 228 220 212
304 333 312 305 294 283 284 285 282 279 296 252 272 284 271 269 258 269 294 275 267 261 250 253 238 246 247 232 234 232 227 226 247 230 235 245 233 242 230 225 234 233 228 212

GFSCGP_2pvu_pres_099.txt.gz
Presure
200 182 202 203 183 196 196 207 203 215 215 209 207 216 211 215 213 214 226 238 238 260 243 248 242 249 266 239 253 254 258 238 219 191 221 190 199 200 188 205 200 177 181 186
196 196 155 190 174 197 205 194 214 212 208 214 223 210 212 176 198 215 229 236 254 255 272 266 271 244 254 250 240 242 249 239 234 225 223 210 211 195 189 204 188 181 198 204
204 200 202 193 203 212 226 209 215 201 219 206 215 207 218 210 222 228 237 255 300 251 254 259 244 240 250 263 266 322 291 261 241 224 227 207 213 203 197 208 187 202 174 202
206 220 197 199 207 217 207 216 222 226 220 213 222 208 233 227 232 238 281 307 288 252 253 274 253 330 317 336 270 285 253 295 297 264 274 279 216 191 186 193 203 170 175 185
219 219 212 217 224 224 221 222 229 226 226 230 214 259 70 86 239 109 289 292 288 282 287 383 350 327 326 328 341 323 317 321 270 250 275 231 222 211 212 222 211 195 192 188
219 218 223 224 216 228 228 222 226 240 245 239 207 221 250 93 136 303 284 260 307 377 361 328 305 304 287 322 308 317 323 288 272 270 236 218 215 229 218 203 215 194 170 187
220 225 215 209 218 228 225 230 236 238 243 253 248 255 270 302 68 182 311 332 377 338 301 284 281 292 302 282 273 276 273 273 250 251 222 222 217 219 207 180 205 188 200 194
226 228 235 218 218 255 265 250 246 260 267 266 259 291 299 299 298 331 396 377 328 297 277 271 285 280 273 264 241 249 259 250 244 245 241 208 202 195 211 190 194 193 192 200
232 229 231 241 254 256 244 244 258 271 295 300 298 289 291 320 330 393 341 309 292 269 273 274 280 258 263 256 256 234 244 232 223 228 208 223 205 190 193 178 178 181 188 211
269 265 262 267 264 260 269 201 276 278 267 286 287 294 310 321 381 313 302 276 266 255 254 269 272 254 243 246 247 227 233 225 232 222 204 195 200 188 174 174 171 191 195 208
266 266 283 284 276 278 284 288 282 279 283 297 306 315 305 380 308 286 274 255 257 248 247 273 251 241 252 245 239 239 229 226 194 193 192 183 170 175 171 163 182 182 181 206
260 285 86 99 276 275 117 271 287 303 303 309 320 306 366 311 279 263 257 246 254 252 254 260 250 245 240 240 241 237 231 210 205 205 203 193 179 179 141 207 200 196 209 205
273 279 275 277 293 292 291 298 318 328 365 340 354 363 365 282 263 255 258 245 245 248 259 254 243 236 232 229 236 236 235 205 216 200 195 193 185 160 198 191 201 189 208 225
279 276 287 291 290 311 327 356 343 339 333 317 351 343 283 271 262 254 246 243 245 245 242 253 234 244 238 238 237 226 214 224 209 210 194 192 186 180 176 193 205 202 201 213
288 289 285 302 333 345 335 337 405 416 528 333 337 337 272 260 255 252 246 241 235 239 238 245 252 237 234 228 230 235 233 226 228 201 210 208 183 196 200 129 140 212 191 187
284 298 322 326 317 410 407 382 388 458 507 317 322 300 267 252 244 248 240 254 242 241 246 234 243 228 235 222 223 223 221 212 219 196 198 201 193 204 205 187 144 180 194 194
316 323 310 408 393 393 371 405 494 489 322 316 340 281 263 252 252 250 243 241 214 265 236 228 245 231 225 221 220 216 228 206 207 207 190 188 189 188 189 189 200 204 205 203
302 348 392 372 358 403 411 411 415 346 312 302 315 279 263 252 256 248 247 245 244 265 241 229 236 220 225 221 227 225 219 211 205 202 207 200 202 199 202 198 188 201 213 194
381 374 350 460 377 382 372 374 323 308 282 297 295 272 265 253 254 252 248 244 249 252 253 225 226 213 228 225 225 219 215 221 218 223 222 223 223 214 248 263 241 253 253 253
358 428 448 358 338 334 349 308 303 286 281 297 296 266 262 258 255 248 259 240 243 233 249 224 237 214 221 219 223 224 222 219 216 222 222 223 214 221 227 221 241 251 255 231
398 384 329 327 320 338 303 285 275 270 257 281 300 265 261 260 262 263 248 247 245 238 229 238 257 232 223 218 216 214 212 214 215 225 224 216 251 216 210 217 231 228 232 232
353 313 302 309 308 284 284 277 280 269 257 271 287 284 256 261 266 268 263 237 258 245 237 232 235 231 245 223 222 218 215 213 206 204 229 234 256 227 211 216 228 233 227 221
333 299 300 299 290 278 274 275 273 270 269 266 260 294 259 268 262 263 265 257 260 262 251 251 245 239 237 240 227 231 233 226 216 229 233 228 229 237 229 233 224 211 236 230
323 308 294 289 289 277 277 269 273 266 268 260 270 265 281 306 273 270 260 272 260 253 238 246 238 237 226 232 234 235 235 233 223 225 234 231 241 232 216 225 228 223 226 225
311 308 316 285 289 288 276 274 277 280 267 268 258 277 265 263 284 299 294 283 262 260 250 230 236 235 236 230 224 222 221 223 224 226 238 235 245 230 259 244 255 226 236 234
312 302 303 298 280 278 280 274 275 268 273 263 273 268 275 253 270 269 251 258 282 290 304 270 258 243 237 235 233 226 226 225 225 230 229 231 243 228 231 241 255 252 235 241

GFSCGP_2pvu_pres_102.txt.gz
Presure
188 197 202 204 201 203 195 189 202 195 201 189 177 176 203 200 203 200 208 206 207 217 212 198 192 210 216 240 251 250 274 250 249 258 231 241 192 220 192 198 194 182 190 191
201 173 200 151 201 208 213 199 194 202 206 213 197 200 194 210 214 218 177 217 220 207 209 220 231 236 242 247 253 289 283 272 259 249 267 237 236 224 192 229 206 207 183 194
198 208 215 191 214 206 216 202 214 207 213 211 184 192 203 216 214 221 217 229 214 232 240 241 246 238 239 259 289 284 247 257 264 247 247 244 237 233 226 189 183 194 203 196
211 205 177 208 204 213 214 204 210 204 220 182 223 215 218 221 222 228 226 247 244 244 269 245 179 262 161 283 287 258 268 268 247 253 246 242 236 237 206 211 230 203 200 202
191 210 206 209 153 228 209 220 226 217 220 228 226 219 212 205 211 214 234 237 243 107 267 263 286 299 301 284 267 296 298 294 263 336 240 238 247 237 248 201 220 202 209 211
200 187 227 228 220 215 212 214 223 228 229 236 224 234 228 114 170 245 199 111 256 272 273 291 317 312 297 281 332 371 324 349 346 305 309 288 305 289 272 255 217 194 207 185
213 212 202 210 227 233 231 214 225 238 238 234 231 246 247 230 247 212 100 261 128 271 301 305 287 315 355 357 327 318 303 295 334 346 293 292 252 293 285 287 259 213 198 224
235 181 206 210 221 213 150 225 259 252 239 244 255 250 249 262 266 260 272 245 85 273 296 336 398 341 324 302 299 294 303 314 322 304 313 274 268 272 290 263 194 198 184 185
258 249 230 202 250 158 265 283 279 249 256 271 270 279 278 268 269 295 294 285 322 422 390 354 318 290 281 282 275 287 287 266 275 302 292 299 275 274 268 208 193 187 185 176
265 255 259 253 271 282 276 272 270 271 271 276 281 285 288 287 294 292 298 315 393 338 313 301 285 300 287 267 261 268 265 248 240 273 279 248 258 206 187 201 191 171 183 185
265 278 270 263 261 258 259 260 267 269 274 282 294 295 291 284 288 299 303 382 308 292 281 277 271 280 263 258 255 256 236 242 254 240 228 237 215 198 197 188 197 183 159 192
255 256 252 255 256 157 253 254 269 284 287 288 287 295 295 296 306 341 390 304 286 279 268 263 258 267 255 246 242 245 249 237 229 231 202 199 199 186 180 194 185 185 192 169
250 248 249 253 97 249 275 277 288 232 289 285 200 127 303 335 351 304 297 288 278 266 257 259 258 269 245 246 239 256 244 235 226 220 202 198 210 194 201 191 185 175 185 143
245 245 250 259 280 279 277 285 291 308 296 300 356 359 341 343 359 315 279 278 266 254 255 252 260 264 247 241 250 258 241 226 219 223 200 207 200 203 194 207 186 186 164 185
252 253 266 276 282 282 300 305 290 320 351 339 317 395 335 336 342 278 270 270 265 253 250 250 245 256 246 237 241 232 247 237 218 213 198 204 203 194 206 193 178 179 188 195
261 277 280 288 300 298 314 311 324 326 414 431 406 421 320 356 291 273 266 257 259 253 247 262 249 246 242 238 238 229 244 235 216 221 202 204 205 215 199 195 193 205 200 125
280 277 294 285 302 318 304 329 395 390 392 398 434 379 338 305 281 265 263 256 261 253 251 249 258 239 236 232 227 231 229 239 222 215 200 206 213 195 208 191 193 204 193 183
279 304 299 313 306 333 381 366 394 431 471 480 466 320 328 285 278 265 259 262 261 256 233 256 246 240 216 231 227 235 232 221 226 220 209 204 204 202 200 192 193 194 191 204
288 303 310 324 383 403 396 399 391 392 412 359 308 338 267 283 275 257 264 256 261 255 250 242 247 231 245 221 229 227 228 224 226 228 214 220 205 203 199 197 193 193 196 200
310 310 468 390 373 377 375 382 363 333 306 302 294 313 306 277 267 261 259 261 257 238 255 238 238 244 229 234 227 228 214 226 215 213 210 215 219 194 191 203 206 184 190 189
423 432 366 355 353 355 353 344 312 299 285 291 287 298 282 266 263 255 256 237 255 259 236 254 231 241 236 238 233 220 218 218 216 216 224 207 215 202 205 199 193 186 196 181
397 339 322 339 329 324 323 301 294 283 283 283 279 286 284 265 257 256 248 250 243 253 248 238 223 248 228 226 234 218 224 223 215 215 213 210 209 209 201 203 218 205 215 212
324 314 319 318 307 306 287 282 280 278 275 290 280 270 278 273 254 255 258 249 250 248 259 247 251 220 249 229 228 218 215 227 224 225 217 211 211 219 211 210 222 209 212 201
320 311 304 306 289 285 281 272 279 269 272 260 282 281 275 278 267 258 254 257 257 258 253 259 241 241 240 225 225 231 226 214 221 219 225 227 224 215 216 206 225 210 223 255
312 310 297 295 285 278 276 280 275 272 267 273 263 261 277 280 279 268 262 268 266 260 260 254 249 252 244 241 240 216 226 234 236 222 222 218 216 216 221 216 212 217 242 259
315 291 297 290 286 273 281 274 274 271 274 264 269 264 263 278 275 287 275 254 262 259 266 264 262 256 250 251 250 238 216 234 233 237 230 224 225 230 229 224 197 234 219 238

GFSCGP_2pvu_pres_105.txt.gz
Presure
185 205 211 169 195 184 213 201 211 198 194 196 183 185 184 200 184 188 199 194 208 177 177 198 203 212 206 214 208 136 211 205 204 215 249 239 235 234 264 241 236 202 210 209
198 211 191 207 206 197 201 204 195 206 196 214 190 189 209 202 192 198 203 199 192 191 196 203 209 213 215 212 204 136 218 224 243 222 245 243 230 250 273 249 215 237 208 199
201 192 212 203 203 206 197 183 186 209 212 216 199 203 196 198 213 203 201 203 205 217 217 217 221 221 224 232 235 258 236 250 243 239 244 261 265 283 277 246 250 224 197 196
245 207 192 209 199 201 202 219 197 221 210 202 204 181 207 190 216 203 212 224 203 181 220 227 207 209 127 213 260 266 246 278 257 262 271 281 290 236 246 251 253 254 249 198
241 214 165 233 213 217 218 220 172 210 223 193 192 202 197 206 213 219 209 214 232 236 240 232 190 114 225 275 251 254 261 267 273 281 286 297 262 280 273 260 251 260 249 240
265 274 232 208 204 204 222 225 199 215 218 225 219 225 216 130 178 81 225 226 229 248 249 107 198 251 201 273 265 261 265 278 288 317 311 289 275 287 261 243 243 257 259 245
233 235 228 221 232 217 227 231 236 229 223 201 211 218 210 225 227 228 225 225 269 100 255 159 275 277 276 283 291 312 316 313 308 303 262 284 280 279 276 252 250 256 249 257
329 332 260 231 234 220 207 230 219 224 233 226 218 218 198 231 238 260 281 105 118 239 286 285 254 285 320 306 306 306 295 335 367 385 372 372 348 343 346 320 330 240 245 242
296 232 229 293 289 248 262 221 231 263 250 258 257 148 237 277 282 274 272 271 281 123 290 291 311 315 325 412 411 402 325 325 314 298 316 320 322 330 281 372 335 255 301 261
265 287 279 281 289 239 231 258 257 243 272 253 246 267 279 280 277 270 271 277 282 291 307 296 305 378 357 355 326 302 295 288 299 299 272 307 311 307 293 261 277 306 305 238
266 270 273 275 245 246 272 271 272 277 276 250 274 274 271 270 269 269 288 299 299 297 306 326 348 323 311 288 284 274 276 269 262 261 249 238 269 321 253 246 247 244 247 167
264 264 257 261 273 266 267 267 266 263 263 100 269 221 274 283 281 296 293 291 299 297 338 322 300 284 285 270 269 264 273 250 258 248 238 253 218 238 255 245 202 214 202 185
262 264 260 261 261 259 257 256 261 263 267 264 190 282 292 129 254 302 313 300 325 384 308 284 275 268 269 274 265 264 260 252 248 247 235 242 213 216 203 199 201 197 193 203
253 256 254 252 253 254 253 258 258 197 264 179 293 293 295 314 262 307 340 353 355 303 278 276 272 267 262 267 260 253 254 244 243 236 226 235 211 221 220 194 204 191 204 192
248 248 249 248 251 250 249 255 263 221 284 319 320 319 325 342 349 323 330 343 300 292 274 276 267 258 256 260 252 261 244 230 239 236 229 216 222 218 212 200 203 199 192 165
242 238 238 244 253 248 254 259 281 293 306 338 341 310 321 342 386 337 359 321 288 281 274 264 264 256 247 253 244 251 236 246 234 222 226 196 214 198 211 202 206 201 187 200
246 250 254 250 258 268 284 288 315 318 325 330 417 416 394 418 429 345 298 289 276 267 269 267 254 254 247 252 236 243 235 243 222 228 226 206 214 199 187 203 202 215 201 186
248 255 265 283 280 290 301 302 316 314 395 437 475 423 395 427 304 296 285 278 280 272 265 263 254 248 248 234 242 242 237 259 232 219 217 210 209 210 204 201 201 193 195 199
279 278 288 293 302 321 306 316 430 403 412 425 445 454 454 302 307 289 287 275 274 266 260 259 249 250 244 240 238 231 231 245 243 214 208 214 207 205 194 197 193 191 198 191
284 315 304 295 311 381 422 412 369 364 372 380 381 333 307 312 286 279 277 268 269 270 264 262 241 260 249 227 235 227 230 235 234 236 218 216 212 206 201 196 203 193 195 186
302 381 394 375 385 381 370 346 337 326 326 309 301 297 290 293 278 272 272 269 266 264 263 270 241 257 243 240 223 227 224 219 229 234 230 216 211 215 203 203 183 189 199 207
401 383 349 346 364 347 334 317 308 313 293 288 283 287 288 284 267 270 268 259 267 259 261 251 266 251 237 236 223 225 223 224 223 227 225 227 233 207 203 207 197 196 199 199
355 334 338 335 334 305 307 295 296 297 287 280 279 285 271 281 266 258 254 260 258 267 252 262 254 253 234 224 233 215 228 218 225 218 222 222 216 213 214 203 206 192 205 204
329 313 324 314 319 291 293 289 285 279 283 273 274 272 281 279 267 256 250 255 256 256 248 258 240 257 252 235 240 234 217 235 223 224 215 215 223 214 215 215 206 208 212 210
299 305 308 306 295 283 281 280 279 274 266 284 256 271 272 279 273 260 255 252 253 259 257 254 251 251 251 254 219 268 232 229 238 228 221 218 206 215 216 213 211 210 197 210
294 294 294 292 290 280 280 275 270 265 271 268 274 273 256 271 276 276 269 252 259 260 262 259 260 252 247 227 227 234 225 249 232 224 229 224 209 219 217 210 211 216 215 207

GFSCGP_2pvu_pres_111.txt.gz
Presure
198 193 212 210 210 203 200 209 213 210 224 215 205 222 205 192 210 203 185 203 183 181 197 189 187 182 191 193 193 197 192 187 193 193 207 183 194 198 199 194 191 195 175 205
193 214 191 216 190 207 218 211 171 223 208 232 184 192 227 197 207 200 222 191 192 203 204 180 186 194 192 193 188 190 194 198 199 197 199 169 182 212 205 212 213 210 208 211
170 177 160 203 184 221 224 161 227 181 186 172 211 205 222 181 220 189 198 194 188 219 207 196 195 199 193 192 199 198 197 206 200 208 202 211 209 201 197 211 204 213 214 211
184 212 251 248 216 270 193 252 321 243 246 189 212 199 226 211 209 232 237 219 201 189 212 189 212 211 212 204 207 133 191 201 208 193 208 208 223 218 223 204 211 216 204 200
262 254 262 243 224 247 340 185 224 280 256 191 248 163 229 226 206 203 188 218 210 203 219 211 214 210 204 207 213 212 208 213 205 206 213 225 228 234 214 212 221 217 224 225
232 296 225 365 367 368 209 349 341 275 327 258 203 288 287 157 273 225 205 191 216 222 221 207 211 215 165 183 203 194 208 219 215 177 229 223 227 231 223 223 221 235 257 250
336 327 323 247 352 308 318 158 330 335 314 270 278 305 291 201 266 96 93 257 242 215 226 222 217 225 230 218 220 233 230 200 197 157 154 237 243 242 243 252 287 277 264 250
320 322 320 294 304 308 141 298 295 277 317 315 304 302 287 288 258 227 244 207 235 234 236 224 227 237 239 230 240 226 101 254 217 252 262 263 267 267 304 290 277 276 281 280
311 306 302 312 301 301 299 300 294 300 303 309 312 207 156 278 291 279 281 172 234 235 253 269 237 119 132 248 238 121 147 160 104 280 269 315 314 317 316 313 321 323 320 310
286 288 292 295 292 287 289 300 292 283 283 291 292 292 215 292 291 158 288 250 276 282 277 256 246 238 242 179 250 144 238 282 209 118 331 353 374 435 448 459 424 375 304 325
281 275 280 293 291 278 280 286 282 283 279 276 276 277 280 283 282 278 280 280 261 255 243 251 241 245 210 253 246 293 303 308 344 392 353 334 340 348 340 310 264 258 269 357
284 282 296 310 274 266 268 269 272 272 269 271 269 264 270 265 267 272 271 241 276 268 268 245 268 269 285 295 292 288 358 374 349 305 305 304 302 281 267 248 253 239 229 219
288 300 294 297 275 266 265 262 259 262 260 252 249 252 248 260 266 240 271 268 270 270 271 275 280 284 290 289 298 376 360 333 260 251 283 277 265 261 243 244 238 223 221 225
273 270 265 260 263 260 265 263 257 254 250 247 249 249 259 257 259 266 267 259 271 269 187 277 159 296 315 348 354 335 310 279 260 263 267 254 242 246 241 235 227 228 223 220
260 259 252 247 250 250 247 248 251 248 247 253 187 254 112 224 67 238 262 265 267 268 270 294 355 358 379 331 312 298 281 277 273 264 258 249 246 235 239 235 223 227 225 235
252 255 247 241 249 252 255 253 255 255 254 253 252 250 85 216 264 266 266 273 275 295 333 342 329 363 365 303 287 277 277 263 265 249 252 242 241 237 231 228 215 229 239 229
246 249 253 253 253 253 252 250 248 251 251 254 252 254 257 262 268 275 283 296 317 362 385 321 335 325 305 287 282 274 266 258 243 254 238 232 237 220 221 228 227 235 222 232
247 243 244 245 245 247 251 246 245 246 251 255 260 270 277 288 311 341 349 405 389 463 331 329 305 298 284 274 271 268 263 247 248 242 240 230 222 225 227 216 232 229 223 226
242 245 244 244 248 251 252 255 257 257 265 271 279 287 313 333 307 463 488 430 373 329 327 294 285 287 275 265 261 259 257 252 244 235 228 225 225 223 213 225 229 219 215 216
242 244 245 245 248 257 266 272 279 291 292 325 321 323 447 437 396 401 423 324 307 323 293 279 272 273 272 262 262 243 259 248 235 236 226 223 227 223 215 225 223 203 196 216
241 241 246 260 272 280 293 309 321 345 397 397 410 385 378 388 355 324 309 301 309 288 278 269 263 263 262 258 256 241 255 237 251 239 224 224 222 223 216 223 215 210 208 199
249 259 272 291 318 306 390 411 377 382 342 342 346 340 344 322 322 296 285 287 287 270 264 262 257 251 269 249 254 253 248 244 237 240 221 226 219 221 220 215 213 208 214 205
270 300 305 371 370 381 362 359 318 311 307 309 309 310 301 302 289 277 278 282 282 267 262 254 259 257 250 253 250 255 236 244 236 250 221 227 223 204 209 217 213 213 201 204
296 302 359 358 372 335 333 310 300 300 297 295 305 289 285 277 269 269 267 270 282 268 262 260 257 258 256 269 251 250 236 245 237 234 237 223 222 214 216 212 215 221 209 205
298 341 339 349 319 316 302 290 286 297 284 282 294 284 272 266 262 259 259 260 258 267 267 253 253 246 251 256 260 249 241 237 236 233 230 237 234 215 227 223 220 214 220 202
333 334 320 315 303 295 282 287 275 280 287 279 273 279 258 260 261 256 252 254 256 251 252 259 258 244 245 247 252 261 242 247 233 233 232 233 236 223 230 230 224 215 221 202

GFSCGP_2pvu_pres_114.txt.gz
Presure
208 205 197 202 175 182 188 196 204 201 204 198 178 197 212 192 211 205 215 189 209 217 202 231 201 194 180 195 197 198 179 201 193 201 194 195 192 190 197 198 192 195 200 191
214 204 196 171 187 191 188 196 174 173 180 202 184 199 198 235 195 176 184 193 232 188 192 193 224 186 204 193 184 194 200 197 189 193 192 200 199 193 165 197 194 193 199 193
204 178 182 174 196 195 167 196 208 203 183 173 194 236 241 195 203 188 229 202 140 228 208 214 194 182 210 197 198 188 210 205 200 208 203 201 195 199 193 186 202 201 204 199
193 185 207 133 175 174 183 144 239 170 190 237 253 180 181 150 217 261 238 178 206 236 181 198 224 208 189 231 202 214 199 202 201 210 201 195 202 200 198 194 195 206 213 203
226 219 176 202 245 172 155 239 154 181 338 219 344 346 397 299 231 174 269 171 298 203 235 241 202 230 212 203 201 223 202 172 199 200 198 209 213 210 210 213 213 206 196 193
230 231 238 238 250 253 322 371 198 364 209 340 142 183 245 319 100 276 316 276 294 267 257 244 235 224 211 236 211 220 202 215 132 219 217 217 209 217 210 214 204 174 217 218
237 258 250 256 301 279 333 327 339 354 341 321 194 217 320 79 247 150 179 299 192 245 188 268 277 258 232 220 224 231 225 219 214 210 214 213 215 215 235 160 107 225 240 242
301 315 322 334 209 316 327 316 305 288 325 146 297 301 300 315 282 174 273 116 89 99 192 283 272 255 117 262 222 240 240 232 229 217 230 153 225 233 226 185 242 243 241 250
336 340 127 317 311 311 290 296 296 276 294 312 283 274 166 246 265 280 275 284 281 288 295 299 276 274 275 262 246 244 255 247 227 105 244 244 255 101 100 251 253 240 261 296
316 313 304 310 305 293 294 293 278 278 283 293 302 282 278 267 266 277 286 285 282 284 204 226 253 278 243 240 236 258 246 229 178 259 263 252 240 229 249 254 331 336 337 334
311 317 319 307 301 286 282 279 278 271 283 294 287 274 274 275 275 274 283 281 283 283 274 202 233 288 288 287 276 259 240 254 280 278 249 240 250 243 380 407 407 410 417 428
304 299 307 308 305 294 284 287 301 279 272 275 277 285 268 271 271 268 269 271 269 271 272 271 273 278 280 282 283 280 239 245 234 229 277 315 408 337 323 329 327 324 269 264
287 286 294 289 303 296 301 280 268 259 262 259 265 261 263 261 265 263 263 258 256 261 266 268 268 270 273 275 274 237 277 281 297 304 336 403 288 308 305 283 282 250 244 251
283 278 275 279 274 288 276 262 261 258 263 254 253 254 256 255 255 254 253 248 251 257 257 258 260 262 175 271 279 286 291 296 296 387 324 276 282 272 262 265 246 240 231 241
262 259 257 260 262 257 256 254 255 256 256 256 255 254 250 243 227 250 250 252 259 257 259 263 268 269 273 280 282 286 381 385 368 278 273 272 271 254 261 251 240 245 239 230
250 247 250 254 254 252 243 246 248 246 247 247 245 249 248 248 251 258 257 255 256 255 258 261 270 269 272 280 488 365 336 326 314 258 263 267 253 244 247 248 235 252 236 242
249 256 250 251 250 245 244 237 244 250 254 256 250 252 66 254 255 256 256 262 264 264 264 267 285 331 363 389 372 318 301 300 262 261 250 254 256 245 233 242 236 218 225 222
251 259 250 258 253 252 253 246 245 246 248 250 248 250 248 251 254 255 259 261 271 281 294 325 345 382 358 343 317 288 288 279 253 246 256 252 241 243 231 220 223 217 235 219
248 243 246 243 241 242 244 245 243 245 247 250 253 257 260 264 271 276 284 299 349 351 314 397 380 326 320 308 278 271 277 259 253 246 251 247 237 238 234 218 228 216 231 223
238 239 236 236 239 248 250 251 251 253 256 265 273 281 284 290 302 331 310 364 446 389 380 347 305 310 292 283 273 268 259 258 237 251 237 238 233 225 222 222 230 220 215 213
241 243 236 243 250 251 254 261 269 277 308 334 419 418 423 433 402 396 404 397 360 335 319 297 295 284 281 265 265 258 254 249 243 238 237 229 218 222 223 217 214 210 216 216
242 239 245 249 256 264 277 312 376 393 392 391 368 374 369 368 369 353 338 330 301 290 293 278 272 269 275 265 261 255 245 249 249 230 234 228 221 226 225 214 216 215 213 214
242 244 248 258 280 309 306 376 368 353 339 329 326 320 319 317 321 295 306 285 290 280 269 270 266 261 258 262 257 251 257 244 246 237 235 225 215 227 224 216 217 213 208 212
248 251 261 304 302 388 358 360 320 305 301 311 307 307 310 312 291 272 271 279 270 268 266 267 256 251 249 252 264 248 257 233 248 236 248 227 215 218 220 215 226 223 210 212
252 272 298 308 346 354 345 308 298 291 301 298 294 293 291 272 270 263 271 273 265 259 257 251 249 249 246 241 246 239 247 252 238 244 229 241 215 218 221 218 216 233 214 219
271 298 297 322 345 344 305 300 287 288 285 290 283 284 280 266 260 257 257 262 259 257 255 247 255 251 249 249 249 246 250 247 251 239 231 236 238 227 217 218 217 219 230 226

GFSCGP_2pvu_pres_117.txt.gz
Presure
194 199 200 187 194 193 210 206 190 197 198 207 219 184 179 191 190 190 211 200 188 203 224 213 189 202 229 199 202 202 207 206 183 212 194 189 211 193 208 192 193 220 174 177
200 192 189 189 194 206 193 201 200 195 170 191 182 178 176 162 198 211 191 207 186 210 178 190 178 176 215 199 193 214 226 204 211 204 213 202 194 186 204 212 188 193 190 183
189 185 199 195 184 198 204 185 179 180 182 182 200 208 220 206 196 202 211 149 226 255 242 211 218 251 196 203 189 194 200 220 202 199 216 215 215 204 191 197 206 189 187 195
152 200 189 174 192 186 183 184 197 182 174 184 203 270 269 159 254 260 148 209 160 168 323 229 174 186 267 246 185 182 218 228 208 183 183 214 206 202 213 162 193 214 197 206
213 197 199 156 162 191 195 169 159 167 177 298 239 182 303 337 396 368 341 148 256 317 316 312 302 296 265 258 177 248 234 186 208 238 228 225 212 190 193 205 209 200 199 181
206 213 204 205 220 197 199 205 227 257 341 374 181 279 217 80 95 357 342 172 156 157 336 308 325 331 162 190 263 257 247 217 242 210 226 206 203 201 182 221 227 213 211 216
197 211 183 190 216 220 240 264 291 370 344 318 257 225 224 216 295 307 215 187 174 252 155 289 235 312 330 335 295 264 278 273 233 234 238 224 241 216 224 225 219 217 211 210
203 228 212 224 226 237 262 350 352 325 328 326 291 316 337 272 263 99 141 218 134 299 290 277 290 163 109 314 313 268 283 263 197 243 191 239 227 235 185 260 232 236 231 217
213 223 225 230 236 279 327 315 310 312 306 303 295 293 286 258 242 262 250 265 160 289 255 94 77 274 291 182 269 170 244 259 241 251 264 159 244 240 226 215 241 260 244 114
235 245 242 300 308 326 327 327 310 298 300 294 294 282 291 263 252 249 274 249 254 245 215 265 274 216 213 199 298 300 226 252 301 286 276 256 243 184 267 234 247 237 238 251
236 330 317 323 323 324 313 310 308 297 297 291 281 281 280 283 264 252 259 252 258 272 270 254 277 269 276 278 284 283 285 288 289 262 295 285 273 241 248 249 244 248 250 246
277 301 316 301 302 301 301 302 311 297 294 276 290 292 284 285 298 294 288 283 290 260 259 263 263 262 261 265 269 273 276 278 106 282 286 239 255 272 284 242 234 233 320 417
305 304 300 299 302 293 300 286 288 293 294 276 275 270 263 270 276 290 288 278 259 251 251 260 261 259 258 260 263 266 270 273 273 279 285 291 302 226 304 322 314 356 338 319
296 302 298 288 284 282 279 283 282 284 276 266 258 267 260 260 262 263 260 256 248 246 248 250 253 253 253 252 252 256 259 262 268 276 287 299 303 307 308 363 319 294 290 282
299 288 279 271 272 266 260 259 255 258 258 259 250 261 250 255 250 246 247 244 247 250 243 242 245 246 247 248 252 255 258 265 276 283 286 348 387 400 328 300 278 278 266 251
283 271 267 264 259 256 258 252 251 246 244 247 248 248 250 252 254 250 253 253 254 250 247 246 248 251 255 260 264 267 272 282 275 299 364 341 295 288 277 272 265 265 252 246
281 267 255 250 256 256 256 251 249 245 247 244 237 243 245 249 250 253 250 250 253 259 256 255 256 258 259 264 262 270 336 396 345 320 318 272 269 259 267 262 263 253 245 239
272 261 249 251 247 261 253 256 250 247 250 253 252 250 250 249 252 256 254 254 255 254 256 256 256 261 269 285 298 370 351 313 307 299 264 259 257 266 255 252 258 261 231 231
255 246 251 248 246 243 244 242 239 237 239 242 248 253 252 254 255 255 256 260 263 267 273 279 287 336 339 358 358 332 297 283 269 270 253 249 254 259 246 247 242 245 225 220
247 250 245 245 242 238 238 240 237 239 244 249 251 253 252 257 261 269 272 276 288 308 334 436 301 384 362 342 321 287 276 273 271 262 239 244 239 240 243 231 244 226 231 216
243 244 244 240 238 247 251 245 250 252 257 269 297 314 329 333 422 412 402 405 364 409 384 359 347 331 319 300 291 273 271 263 265 252 241 248 248 239 239 230 241 230 222 220
244 245 241 238 244 246 247 250 259 286 312 305 370 371 384 403 381 360 380 378 364 351 343 331 305 296 294 282 277 260 261 264 261 247 239 239 245 244 234 230 231 220 230 217
239 239 237 238 247 248 250 269 305 355 364 347 351 354 339 339 340 344 334 336 334 303 286 290 284 280 268 271 263 259 258 260 255 253 240 241 239 246 228 230 236 225 221 220
241 242 243 242 252 260 278 315 376 346 337 316 318 309 306 323 327 318 317 298 284 281 278 274 265 266 269 256 262 244 253 251 252 257 236 233 241 241 225 228 231 227 215 220
242 236 245 252 261 277 315 369 328 317 297 304 298 312 309 301 287 291 277 276 281 274 269 260 263 261 261 253 261 262 248 249 242 248 249 234 236 238 226 223 224 214 218 219
236 247 250 259 301 302 336 325 312 296 294 287 289 284 290 290 271 270 265 264 265 256 253 250 251 255 256 257 246 246 256 256 241 243 243 239 248 232 231 222 228 218 218 225

GFSCGP_2pvu_pres_120.txt.gz
Presure
188 187 179 189 198 183 186 188 208 203 199 187 190 206 200 187 201 198 191 188 188 200 200 202 202 161 182 204 189 206 184 195 195 207 195 214 215 214 206 174 208 179 175 173
174 173 203 178 207 202 189 195 200 202 195 196 200 194 204 194 187 180 196 190 180 170 190 161 130 99 202 191 180 180 200 197 183 194 194 206 199 228 209 219 176 187 210 191
195 188 193 186 190 192 194 197 199 203 203 210 207 187 186 183 195 202 209 185 160 171 205 172 215 299 295 182 231 214 197 226 203 207 241 194 195 196 230 223 215 198 216 186
197 184 185 182 179 185 187 187 194 208 202 206 202 172 170 184 197 228 183 166 323 340 295 321 310 296 304 294 188 258 257 244 240 251 246 202 227 200 195 181 224 181 187 214
193 186 190 191 185 190 189 196 209 212 189 182 196 163 226 147 239 136 368 221 383 362 195 391 318 153 178 157 159 356 338 310 286 277 270 255 249 231 204 199 234 221 217 206
206 193 198 208 194 201 210 171 204 199 202 203 187 229 84 96 198 84 380 147 352 219 374 352 218 152 143 190 254 162 252 325 169 279 269 262 261 252 250 225 237 226 201 182
201 199 209 208 215 214 166 201 208 203 215 208 237 248 309 320 182 131 298 134 149 147 197 298 168 280 188 156 207 298 275 276 316 291 159 276 270 185 217 229 223 232 242 227
207 205 201 197 207 220 197 203 191 219 236 246 287 335 331 329 315 284 259 152 285 280 231 91 172 277 284 271 286 289 251 300 310 285 162 254 258 251 254 251 225 237 229 230
197 213 212 206 205 164 166 226 222 225 315 345 336 318 329 321 285 278 270 269 253 280 254 96 263 288 285 194 235 265 290 298 270 294 174 305 296 257 96 267 252 227 251 251
210 201 197 158 216 228 213 235 274 346 337 333 348 316 311 316 281 270 277 269 266 259 253 246 260 262 263 262 131 108 140 281 277 295 270 298 298 312 300 285 291 165 217 251
205 204 201 245 226 237 242 331 296 321 312 308 318 318 302 300 281 274 273 263 269 250 258 256 260 254 262 246 253 276 278 280 279 279 288 299 304 296 263 285 287 270 252 239
232 227 242 273 268 296 309 314 319 315 299 298 308 312 287 294 292 271 262 262 260 268 247 267 263 263 265 248 253 265 267 265 268 262 277 281 282 288 290 270 298 298 299 300
250 272 275 276 312 291 264 319 294 286 287 284 296 306 296 301 313 313 284 257 259 259 264 257 256 252 259 258 265 257 255 260 264 265 265 243 272 280 284 291 299 200 303 304
276 276 267 290 300 310 311 290 280 268 277 285 286 280 280 275 279 269 265 273 261 257 255 258 270 271 265 254 250 250 251 262 266 265 264 266 272 276 281 286 290 296 308 304
272 273 258 247 292 297 287 278 269 263 260 264 267 267 266 263 260 258 257 254 252 258 262 261 252 250 251 250 248 253 254 252 252 255 263 271 278 286 285 283 301 395 420 319
287 240 288 286 291 287 283 267 258 252 255 256 259 255 252 249 247 249 249 257 256 252 246 243 246 245 246 248 249 249 254 258 264 262 268 279 284 375 332 321 336 324 320 293
291 283 283 291 276 274 265 256 260 262 261 260 254 256 247 248 246 244 245 245 244 244 245 246 249 248 242 247 259 261 260 255 262 264 271 353 308 300 291 284 280 290 274 270
287 281 273 274 282 266 258 256 254 263 262 262 259 253 251 248 248 251 251 251 254 256 258 259 260 260 257 254 255 252 252 258 266 357 321 303 289 279 276 264 273 271 251 255
275 275 280 269 265 255 246 253 253 248 249 244 242 241 242 245 251 255 256 255 255 255 254 257 257 257 258 261 263 271 289 363 331 302 290 275 272 263 257 257 260 244 242 252
250 268 276 265 247 249 251 251 249 242 240 247 252 244 249 254 264 270 277 281 278 280 278 280 277 279 297 298 352 296 287 308 290 278 268 267 263 254 254 249 242 249 247 251
255 263 262 249 242 247 250 250 238 244 244 250 252 259 274 316 329 323 312 309 321 345 414 352 382 400 378 353 339 324 294 284 277 266 261 265 253 246 243 254 239 242 235 245
259 262 254 246 246 250 248 241 239 243 253 259 286 320 353 373 375 402 416 395 374 387 375 363 348 335 322 318 309 290 280 279 272 262 256 260 243 240 246 246 240 231 235 235
260 250 246 246 239 244 245 245 246 256 269 313 335 358 358 352 387 350 360 360 357 343 333 318 314 308 301 297 292 278 272 265 265 261 254 253 248 235 240 244 234 242 231 233
251 247 247 246 243 243 239 253 254 273 315 315 350 346 328 328 324 338 338 334 317 309 302 298 291 287 283 280 278 268 265 260 254 250 259 251 256 241 234 235 237 232 231 230
251 246 247 244 240 237 251 256 276 312 351 320 309 313 312 312 326 315 303 293 285 284 284 286 284 274 274 267 262 269 256 253 253 247 247 252 248 237 229 232 243 230 224 233
247 244 240 236 246 250 255 272 302 329 326 301 303 297 308 297 281 287 280 278 276 278 276 275 270 264 266 263 260 263 251 250 244 244 250 250 254 246 234 236 239 238 234 220